Hill AFB, UT

2:35 AM MST on February 20, 2017 (GMT -0700)
Hill Air Force Base

Weather History for KHIF - March, 2014

Change the Weather History Date:

Tuesday, March 25, 2014

  Actual Average Record
Temperature  
Mean Temperature 52 °F -  
Max Temperature 67 °F 52 °F 68 °F (2012)
Min Temperature 37 °F 34 °F 22 °F (2013)
Degree Days  
Heating Degree Days 13    
Growing Degree Days 2 (Base 50)    
Moisture  
Dew Point 6 °F    
Average Humidity 18    
Maximum Humidity 35    
Minimum Humidity 6    
Precipitation  
Precipitation 0.00 in - - ()
Sea Level Pressure  
Sea Level Pressure 29.84 in    
Wind  
Wind Speed 14 mph (SE)    
Max Wind Speed 18 mph    
Max Gust Speed 28 mph    
Visibility 10 miles    
Events      
Averages and records for this station are not official NWS values.
T = Trace of Precipitation, MM = Missing Value Source: NWS Daily Summary

Daily Weather History Graph

Daily Weather History Graph

Search for Another Location

Airport or City:

Trip Planner

Search our weather history database for the weather conditions in past years. The results will help you decide how hot, cold, wet, or windy it might be!

Date:

Astronomy

Mar. 25, 2014 Rise Set
Actual Time 7:22 AM MDT 7:45 PM MDT
Civil Twilight 6:55 AM MDT 8:13 PM MDT
Nautical Twilight 6:22 AM MDT 8:45 PM MDT
Astronomical Twilight 5:49 AM MDT 9:18 PM MDT
Moon 3:50 AM MDT (3/25) 2:17 PM MDT (3/25)
Length of Visible Light 13h 17m
Length of Day
12h 22m
Waning Crescent, 31% of the Moon is Illuminated
Mar 25
Waning Crescent
Mar 30
New
Apr 7
First Quarter
Apr 15
Full
Apr 22
Last Quarter

Hourly Weather History & Observations

Time (MDT) Temp. Windchill Dew Point Humidity Pressure Visibility Wind Dir Wind Speed Gust Speed Precip Events Conditions
12:58 AM 42.8 °F 35.8 °F 9.5 °F 26% 30.12 in 10.0 mi ESE 13.8 mph - N/A   Clear
1:58 AM 42.6 °F 35.2 °F 9.3 °F 26% 30.09 in 10.0 mi ESE 15.0 mph - N/A   Clear
2:58 AM 41.5 °F 33.2 °F 10.0 °F 28% 30.08 in 10.0 mi ESE 17.3 mph - N/A   Clear
3:58 AM 39.2 °F 30.5 °F 10.8 °F 31% 30.06 in 10.0 mi ESE 16.1 mph - N/A   Clear
4:58 AM 38.3 °F 29.0 °F 10.9 °F 32% 30.04 in 10.0 mi ESE 17.3 mph - N/A   Clear
5:58 AM 38.1 °F 28.8 °F 10.9 °F 33% 30.04 in 10.0 mi ESE 17.3 mph - N/A   Clear
6:58 AM 37.9 °F 28.2 °F 11.5 °F 34% 30.02 in 10.0 mi ESE 18.4 mph - N/A   Clear
7:58 AM 37.6 °F 27.7 °F 12.0 °F 35% 30.02 in 10.0 mi ESE 18.4 mph - N/A   Partly Cloudy
8:58 AM 40.1 °F 31.0 °F 12.0 °F 32% 30.02 in 10.0 mi ESE 18.4 mph 25.3 mph N/A   Partly Cloudy
9:58 AM 44.6 °F 36.9 °F 11.8 °F 27% 29.99 in 10.0 mi ESE 18.4 mph 27.6 mph N/A   Clear
10:58 AM 52.2 °F - 12.0 °F 20% 29.96 in 10.0 mi East 11.5 mph - N/A   Clear
11:58 AM 57.0 °F - 10.4 °F 16% 29.92 in 10.0 mi East 8.1 mph - N/A   Clear
12:58 PM 62.1 °F - 5.0 °F 10% 29.87 in 10.0 mi South 10.4 mph - N/A   Partly Cloudy
1:58 PM 64.2 °F - 2.8 °F 9% 29.82 in 10.0 mi SSW 15.0 mph 19.6 mph N/A   Clear
2:10 PM 64.4 °F - 3.2 °F 9% 29.90 in 10.0 mi SSE 13.8 mph - N/A   Clear
2:33 PM 66.2 °F - -0.4 °F 7% 29.88 in 10.0 mi South 15.0 mph 19.6 mph N/A   Clear
2:58 PM 66.2 °F - -5.3 °F 6% 29.77 in 10.0 mi South 11.5 mph - N/A   Clear
3:58 PM 66.6 °F - -1.8 °F 6% 29.73 in 10.0 mi SSW 8.1 mph - N/A   Clear
4:58 PM 67.5 °F - -3.8 °F 6% 29.68 in 10.0 mi SSW 11.5 mph - N/A   Clear
5:58 PM 67.1 °F - -3.8 °F 6% 29.65 in 10.0 mi South 10.4 mph - N/A   Clear
6:58 PM 65.3 °F - 2.1 °F 8% 29.62 in 10.0 mi West 5.8 mph - N/A   Clear
7:58 PM 60.6 °F - 6.1 °F 11% 29.60 in 10.0 mi North 4.6 mph - N/A   Clear
8:58 PM 56.8 °F - 9.5 °F 15% 29.56 in 10.0 mi ESE 9.2 mph - N/A   Clear
9:58 PM 55.8 °F - 0.1 °F 10% 29.52 in 10.0 mi SE 9.2 mph - N/A   Clear
10:58 PM 53.6 °F - 3.2 °F 13% 29.47 in 10.0 mi SSE 10.4 mph - N/A   Clear
11:58 PM 57.4 °F - 1.2 °F 10% 29.44 in 10.0 mi South 18.4 mph - N/A   Overcast